Time,TemperatureF,DewpointF,PressureIn,WindDirection,WindDirectionDegrees,WindSpeedMPH,WindSpeedGustMPH,Humidity,HourlyPrecipIn,Conditions,Clouds,dailyrainin,SolarRadiationWatts/m^2,SoftwareType,DateUTC
2013-06-18 00:00:00,52.3,37.1,30.31,East,90,1.0,3.0,56,0.00,,,0.00,0,WeatherCatV1.20B653,2013-06-18 06:00:00,
2013-06-18 00:05:00,52.3,37.1,30.31,East,90,1.0,3.0,56,0.00,,,0.00,0,WeatherCatV1.20B653,2013-06-18 06:05:00,
2013-06-18 00:10:00,52.8,37.1,30.31,SW,225,2.0,8.0,55,0.00,,,0.00,0,WeatherCatV1.20B653,2013-06-18 06:10:00,
2013-06-18 00:15:00,52.8,37.1,30.31,SW,225,2.0,8.0,55,0.00,,,0.00,0,WeatherCatV1.20B653,2013-06-18 06:15:00,
2013-06-18 00:20:00,52.8,37.1,30.31,SW,225,2.0,8.0,55,0.00,,,0.00,0,WeatherCatV1.20B653,2013-06-18 06:20:00,
2013-06-18 00:25:00,52.5,37.3,30.31,SW,225,0.0,3.0,56,0.00,,,0.00,0,WeatherCatV1.20B653,2013-06-18 06:25:00,
2013-06-18 00:30:00,52.5,37.3,30.31,SW,225,0.0,3.0,56,0.00,,,0.00,0,WeatherCatV1.20B653,2013-06-18 06:30:00,
2013-06-18 00:35:00,52.5,37.3,30.31,SW,225,0.0,3.0,56,0.00,,,0.00,0,WeatherCatV1.20B653,2013-06-18 06:35:00,
2013-06-18 00:40:00,51.7,37.8,30.31,SW,225,1.0,3.0,59,0.00,,,0.00,0,WeatherCatV1.20B653,2013-06-18 06:40:00,
2013-06-18 00:45:00,51.7,37.8,30.31,SW,225,1.0,3.0,59,0.00,,,0.00,0,WeatherCatV1.20B653,2013-06-18 06:45:00,
2013-06-18 00:50:00,51.7,37.8,30.31,SW,225,1.0,3.0,59,0.00,,,0.00,0,WeatherCatV1.20B653,2013-06-18 06:50:00,
2013-06-18 00:55:00,51.3,37.9,30.30,SW,225,1.0,6.0,60,0.00,,,0.00,0,WeatherCatV1.20B653,2013-06-18 06:55:00,
2013-06-18 01:00:00,51.3,37.9,30.30,SW,225,1.0,6.0,60,0.00,,,0.00,0,WeatherCatV1.20B653,2013-06-18 07:00:00,
2013-06-18 01:05:00,51.3,37.9,30.30,SW,225,1.0,6.0,60,0.00,,,0.00,0,WeatherCatV1.20B653,2013-06-18 07:05:00,
2013-06-18 01:10:00,50.5,37.6,30.30,SW,225,0.0,3.0,61,0.00,,,0.00,0,WeatherCatV1.20B653,2013-06-18 07:10:00,
2013-06-18 01:15:00,50.5,37.6,30.30,SW,225,0.0,3.0,61,0.00,,,0.00,0,WeatherCatV1.20B653,2013-06-18 07:15:00,
2013-06-18 01:20:00,50.5,37.6,30.30,SW,225,0.0,3.0,61,0.00,,,0.00,0,WeatherCatV1.20B653,2013-06-18 07:20:00,
2013-06-18 01:25:00,49.9,37.4,30.30,SW,225,0.0,0.0,62,0.00,,,0.00,0,WeatherCatV1.20B653,2013-06-18 07:25:00,
2013-06-18 01:30:00,49.9,37.4,30.30,SW,225,0.0,0.0,62,0.00,,,0.00,0,WeatherCatV1.20B653,2013-06-18 07:30:00,
2013-06-18 01:35:00,49.9,37.4,30.30,SW,225,0.0,0.0,62,0.00,,,0.00,0,WeatherCatV1.20B653,2013-06-18 07:35:00,
2013-06-18 01:40:00,49.1,37.1,30.30,SW,225,0.0,0.0,63,0.00,,,0.00,0,WeatherCatV1.20B653,2013-06-18 07:40:00,
2013-06-18 01:45:00,49.1,37.1,30.30,SW,225,0.0,0.0,63,0.00,,,0.00,0,WeatherCatV1.20B653,2013-06-18 07:45:00,
2013-06-18 01:50:00,49.1,37.1,30.30,SW,225,0.0,0.0,63,0.00,,,0.00,0,WeatherCatV1.20B653,2013-06-18 07:50:00,
2013-06-18 01:55:00,48.5,36.5,30.30,SW,225,0.0,0.0,63,0.00,,,0.00,0,WeatherCatV1.20B653,2013-06-18 07:55:00,
2013-06-18 02:00:00,48.5,36.5,30.30,SW,225,0.0,0.0,63,0.00,,,0.00,0,WeatherCatV1.20B653,2013-06-18 08:00:00,
2013-06-18 02:05:00,48.5,36.5,30.30,SW,225,0.0,0.0,63,0.00,,,0.00,0,WeatherCatV1.20B653,2013-06-18 08:05:00,
2013-06-18 02:10:00,47.9,37.5,30.30,East,90,1.0,6.0,67,0.00,,,0.00,0,WeatherCatV1.20B653,2013-06-18 08:10:00,
2013-06-18 02:15:00,47.9,37.5,30.30,East,90,1.0,6.0,67,0.00,,,0.00,0,WeatherCatV1.20B653,2013-06-18 08:15:00,
2013-06-18 02:20:00,47.9,37.5,30.30,East,90,1.0,6.0,67,0.00,,,0.00,0,WeatherCatV1.20B653,2013-06-18 08:20:00,
2013-06-18 02:25:00,48.0,37.2,30.30,WNW,292,1.0,8.0,66,0.00,,,0.00,0,WeatherCatV1.20B653,2013-06-18 08:25:00,
2013-06-18 02:30:00,48.0,37.2,30.30,WNW,292,1.0,8.0,66,0.00,,,0.00,0,WeatherCatV1.20B653,2013-06-18 08:30:00,
2013-06-18 02:35:00,48.0,37.2,30.30,WNW,292,1.0,8.0,66,0.00,,,0.00,0,WeatherCatV1.20B653,2013-06-18 08:35:00,
2013-06-18 02:40:00,49.1,37.1,30.29,NNW,338,3.0,11.0,63,0.00,,,0.00,0,WeatherCatV1.20B653,2013-06-18 08:40:00,
2013-06-18 02:45:00,49.1,37.1,30.29,NNW,338,3.0,11.0,63,0.00,,,0.00,0,WeatherCatV1.20B653,2013-06-18 08:45:00,
2013-06-18 02:50:00,49.1,37.1,30.29,NNW,338,3.0,11.0,63,0.00,,,0.00,0,WeatherCatV1.20B653,2013-06-18 08:50:00,
2013-06-18 02:55:00,50.1,37.2,30.29,West,270,4.0,10.0,61,0.00,,,0.00,0,WeatherCatV1.20B653,2013-06-18 08:55:00,
2013-06-18 03:00:00,50.1,37.2,30.29,West,270,4.0,10.0,61,0.00,,,0.00,0,WeatherCatV1.20B653,2013-06-18 09:00:00,
2013-06-18 03:05:00,50.1,37.2,30.29,West,270,4.0,10.0,61,0.00,,,0.00,0,WeatherCatV1.20B653,2013-06-18 09:05:00,
2013-06-18 03:10:00,50.8,37.8,30.30,NW,315,6.0,11.0,61,0.00,,,0.00,0,WeatherCatV1.20B653,2013-06-18 09:10:00,
2013-06-18 03:15:00,50.8,37.8,30.30,NW,315,6.0,11.0,61,0.00,,,0.00,0,WeatherCatV1.20B653,2013-06-18 09:15:00,
2013-06-18 03:20:00,50.8,37.8,30.30,NW,315,6.0,11.0,61,0.00,,,0.00,0,WeatherCatV1.20B653,2013-06-18 09:20:00,
2013-06-18 03:25:00,51.3,37.9,30.29,WNW,292,3.0,12.0,60,0.00,,,0.00,0,WeatherCatV1.20B653,2013-06-18 09:25:00,
2013-06-18 03:30:00,51.3,37.9,30.29,WNW,292,3.0,12.0,60,0.00,,,0.00,0,WeatherCatV1.20B653,2013-06-18 09:30:00,
2013-06-18 03:35:00,51.3,37.9,30.29,WNW,292,3.0,12.0,60,0.00,,,0.00,0,WeatherCatV1.20B653,2013-06-18 09:35:00,
2013-06-18 03:40:00,51.0,38.0,30.29,WNW,292,5.0,12.0,61,0.00,,,0.00,0,WeatherCatV1.20B653,2013-06-18 09:40:00,
2013-06-18 03:45:00,51.0,38.0,30.29,WNW,292,5.0,12.0,61,0.00,,,0.00,0,WeatherCatV1.20B653,2013-06-18 09:45:00,
2013-06-18 03:50:00,51.0,38.0,30.29,WNW,292,5.0,12.0,61,0.00,,,0.00,0,WeatherCatV1.20B653,2013-06-18 09:50:00,
2013-06-18 03:55:00,50.5,38.0,30.29,WNW,292,3.0,12.0,62,0.00,,,0.00,0,WeatherCatV1.20B653,2013-06-18 09:55:00,
2013-06-18 04:00:00,50.5,38.0,30.29,WNW,292,3.0,12.0,62,0.00,,,0.00,0,WeatherCatV1.20B653,2013-06-18 10:00:00,
2013-06-18 04:05:00,50.5,38.0,30.29,WNW,292,3.0,12.0,62,0.00,,,0.00,0,WeatherCatV1.20B653,2013-06-18 10:05:00,
2013-06-18 04:10:00,49.2,37.5,30.29,WNW,292,2.0,6.0,64,0.00,,,0.00,0,WeatherCatV1.20B653,2013-06-18 10:10:00,
2013-06-18 04:15:00,49.2,37.5,30.29,WNW,292,2.0,6.0,64,0.00,,,0.00,0,WeatherCatV1.20B653,2013-06-18 10:15:00,
2013-06-18 04:20:00,49.2,37.5,30.29,WNW,292,2.0,6.0,64,0.00,,,0.00,0,WeatherCatV1.20B653,2013-06-18 10:20:00,
2013-06-18 04:25:00,48.0,37.2,30.29,WNW,292,0.0,5.0,66,0.00,,,0.00,0,WeatherCatV1.20B653,2013-06-18 10:25:00,
2013-06-18 04:30:00,48.0,37.2,30.29,WNW,292,0.0,5.0,66,0.00,,,0.00,0,WeatherCatV1.20B653,2013-06-18 10:30:00,
2013-06-18 04:35:00,48.0,37.2,30.29,WNW,292,0.0,5.0,66,0.00,,,0.00,0,WeatherCatV1.20B653,2013-06-18 10:35:00,
2013-06-18 04:40:00,47.1,37.1,30.29,NW,315,2.0,7.0,68,0.00,,,0.00,0,WeatherCatV1.20B653,2013-06-18 10:40:00,
2013-06-18 04:45:00,47.1,37.1,30.29,NW,315,2.0,7.0,68,0.00,,,0.00,0,WeatherCatV1.20B653,2013-06-18 10:45:00,
2013-06-18 04:50:00,47.1,37.1,30.29,NW,315,2.0,7.0,68,0.00,,,0.00,0,WeatherCatV1.20B653,2013-06-18 10:50:00,
2013-06-18 04:55:00,46.0,36.8,30.29,NW,315,1.0,6.0,70,0.00,,,0.00,0,WeatherCatV1.20B653,2013-06-18 10:55:00,
2013-06-18 05:00:00,46.0,36.8,30.29,NW,315,1.0,6.0,70,0.00,,,0.00,0,WeatherCatV1.20B653,2013-06-18 11:00:00,
2013-06-18 05:05:00,46.0,36.8,30.29,NW,315,1.0,6.0,70,0.00,,,0.00,0,WeatherCatV1.20B653,2013-06-18 11:05:00,
2013-06-18 05:10:00,45.4,36.5,30.28,NW,315,1.0,6.0,71,0.00,,,0.00,0,WeatherCatV1.20B653,2013-06-18 11:10:00,
2013-06-18 05:15:00,45.4,36.5,30.28,NW,315,1.0,6.0,71,0.00,,,0.00,0,WeatherCatV1.20B653,2013-06-18 11:15:00,
2013-06-18 05:20:00,45.4,36.5,30.28,NW,315,1.0,6.0,71,0.00,,,0.00,0,WeatherCatV1.20B653,2013-06-18 11:20:00,
2013-06-18 05:25:00,45.5,37.0,30.28,NW,315,2.0,7.0,72,0.00,,,0.00,0,WeatherCatV1.20B653,2013-06-18 11:25:00,
2013-06-18 05:30:00,45.5,37.0,30.28,NW,315,2.0,7.0,72,0.00,,,0.00,0,WeatherCatV1.20B653,2013-06-18 11:30:00,
2013-06-18 05:35:00,45.5,37.0,30.28,NW,315,2.0,7.0,72,0.00,,,0.00,0,WeatherCatV1.20B653,2013-06-18 11:35:00,
2013-06-18 05:40:00,45.1,36.3,30.28,WNW,292,1.0,7.0,71,0.00,,,0.00,0,WeatherCatV1.20B653,2013-06-18 11:40:00,
2013-06-18 05:45:00,45.1,36.3,30.28,WNW,292,1.0,7.0,71,0.00,,,0.00,0,WeatherCatV1.20B653,2013-06-18 11:45:00,
2013-06-18 05:50:00,45.1,36.3,30.28,WNW,292,1.0,7.0,71,0.00,,,0.00,0,WeatherCatV1.20B653,2013-06-18 11:50:00,
2013-06-18 05:55:00,44.2,36.1,30.29,WNW,292,3.0,6.0,73,0.00,,,0.00,3,WeatherCatV1.20B653,2013-06-18 11:55:00,
2013-06-18 06:00:00,44.2,36.1,30.29,WNW,292,3.0,6.0,73,0.00,,,0.00,3,WeatherCatV1.20B653,2013-06-18 12:00:00,
2013-06-18 06:05:00,44.2,36.1,30.29,WNW,292,3.0,6.0,73,0.00,,,0.00,3,WeatherCatV1.20B653,2013-06-18 12:05:00,
2013-06-18 06:10:00,43.9,35.8,30.29,WNW,292,0.0,0.0,73,0.00,,,0.00,14,WeatherCatV1.20B653,2013-06-18 12:10:00,
2013-06-18 06:15:00,43.9,35.8,30.29,WNW,292,0.0,0.0,73,0.00,,,0.00,14,WeatherCatV1.20B653,2013-06-18 12:15:00,
2013-06-18 06:20:00,43.9,35.8,30.29,WNW,292,0.0,0.0,73,0.00,,,0.00,14,WeatherCatV1.20B653,2013-06-18 12:20:00,
2013-06-18 06:25:00,43.5,35.8,30.29,WNW,292,0.0,1.0,74,0.00,,,0.00,25,WeatherCatV1.20B653,2013-06-18 12:25:00,
2013-06-18 06:30:00,43.5,35.8,30.29,WNW,292,0.0,1.0,74,0.00,,,0.00,25,WeatherCatV1.20B653,2013-06-18 12:30:00,
2013-06-18 06:35:00,43.5,35.8,30.29,WNW,292,0.0,1.0,74,0.00,,,0.00,25,WeatherCatV1.20B653,2013-06-18 12:35:00,
2013-06-18 06:40:00,43.6,36.2,30.29,WNW,292,0.0,4.0,75,0.00,,,0.00,30,WeatherCatV1.20B653,2013-06-18 12:40:00,
2013-06-18 06:45:00,43.6,36.2,30.29,WNW,292,0.0,4.0,75,0.00,,,0.00,30,WeatherCatV1.20B653,2013-06-18 12:45:00,
2013-06-18 06:50:00,43.6,36.2,30.29,WNW,292,0.0,4.0,75,0.00,,,0.00,30,WeatherCatV1.20B653,2013-06-18 12:50:00,
2013-06-18 06:55:00,45.2,36.4,30.29,North,0,1.0,6.0,71,0.00,,,0.00,42,WeatherCatV1.20B653,2013-06-18 12:55:00,
2013-06-18 07:00:00,45.2,36.4,30.29,North,0,1.0,6.0,71,0.00,,,0.00,42,WeatherCatV1.20B653,2013-06-18 13:00:00,
2013-06-18 07:05:00,45.2,36.4,30.29,North,0,1.0,6.0,71,0.00,,,0.00,42,WeatherCatV1.20B653,2013-06-18 13:05:00,
2013-06-18 07:10:00,47.4,37.7,30.28,North,0,0.0,1.0,69,0.00,,,0.00,157,WeatherCatV1.20B653,2013-06-18 13:10:00,
2013-06-18 07:15:00,47.4,37.7,30.28,North,0,0.0,1.0,69,0.00,,,0.00,157,WeatherCatV1.20B653,2013-06-18 13:15:00,
2013-06-18 07:20:00,47.4,37.7,30.28,North,0,0.0,1.0,69,0.00,,,0.00,157,WeatherCatV1.20B653,2013-06-18 13:20:00,
2013-06-18 07:25:00,50.4,38.3,30.28,North,0,0.0,0.0,63,0.00,,,0.00,217,WeatherCatV1.20B653,2013-06-18 13:25:00,
2013-06-18 07:30:00,50.4,38.3,30.28,North,0,0.0,0.0,63,0.00,,,0.00,217,WeatherCatV1.20B653,2013-06-18 13:30:00,
2013-06-18 07:35:00,50.4,38.3,30.28,North,0,0.0,0.0,63,0.00,,,0.00,217,WeatherCatV1.20B653,2013-06-18 13:35:00,
2013-06-18 07:40:00,53.5,39.1,30.28,North,0,0.0,0.0,58,0.00,,,0.00,273,WeatherCatV1.20B653,2013-06-18 13:40:00,
2013-06-18 07:45:00,53.5,39.1,30.28,North,0,0.0,0.0,58,0.00,,,0.00,273,WeatherCatV1.20B653,2013-06-18 13:45:00,
2013-06-18 07:50:00,53.5,39.1,30.28,North,0,0.0,0.0,58,0.00,,,0.00,273,WeatherCatV1.20B653,2013-06-18 13:50:00,
2013-06-18 07:55:00,54.8,39.4,30.28,North,0,0.0,1.0,56,0.00,,,0.00,324,WeatherCatV1.20B653,2013-06-18 13:55:00,
2013-06-18 08:00:00,54.8,39.4,30.28,North,0,0.0,1.0,56,0.00,,,0.00,324,WeatherCatV1.20B653,2013-06-18 14:00:00,
2013-06-18 08:05:00,54.8,39.4,30.28,North,0,0.0,1.0,56,0.00,,,0.00,324,WeatherCatV1.20B653,2013-06-18 14:05:00,
2013-06-18 08:10:00,55.9,40.4,30.28,North,0,1.0,3.0,56,0.00,,,0.00,375,WeatherCatV1.20B653,2013-06-18 14:10:00,
2013-06-18 08:15:00,55.9,40.4,30.28,North,0,1.0,3.0,56,0.00,,,0.00,375,WeatherCatV1.20B653,2013-06-18 14:15:00,
2013-06-18 08:20:00,55.9,40.4,30.28,North,0,1.0,3.0,56,0.00,,,0.00,375,WeatherCatV1.20B653,2013-06-18 14:20:00,
2013-06-18 08:25:00,56.6,41.1,30.28,North,0,2.0,6.0,56,0.00,,,0.00,424,WeatherCatV1.20B653,2013-06-18 14:25:00,
2013-06-18 08:30:00,56.6,41.1,30.28,North,0,2.0,6.0,56,0.00,,,0.00,424,WeatherCatV1.20B653,2013-06-18 14:30:00,
2013-06-18 08:35:00,56.6,41.1,30.28,North,0,2.0,6.0,56,0.00,,,0.00,424,WeatherCatV1.20B653,2013-06-18 14:35:00,
2013-06-18 08:40:00,56.6,41.1,30.28,North,0,2.0,6.0,56,0.00,,,0.00,424,WeatherCatV1.20B653,2013-06-18 14:40:00,
2013-06-18 08:45:00,58.4,40.8,30.28,WSW,248,0.0,5.0,52,0.00,,,0.00,475,WeatherCatV1.20B653,2013-06-18 14:45:00,
2013-06-18 08:50:00,58.4,40.8,30.28,WSW,248,0.0,5.0,52,0.00,,,0.00,475,WeatherCatV1.20B653,2013-06-18 14:50:00,
2013-06-18 08:55:00,58.4,40.8,30.28,WSW,248,0.0,5.0,52,0.00,,,0.00,475,WeatherCatV1.20B653,2013-06-18 14:55:00,
2013-06-18 09:00:00,59.9,40.7,30.28,WSW,248,0.0,5.0,49,0.00,,,0.00,522,WeatherCatV1.20B653,2013-06-18 15:00:00,
2013-06-18 09:05:00,59.9,40.7,30.28,WSW,248,0.0,5.0,49,0.00,,,0.00,522,WeatherCatV1.20B653,2013-06-18 15:05:00,
2013-06-18 09:10:00,59.9,40.7,30.28,WSW,248,0.0,5.0,49,0.00,,,0.00,522,WeatherCatV1.20B653,2013-06-18 15:10:00,
2013-06-18 09:15:00,61.8,39.7,30.27,NNW,338,1.0,6.0,44,0.00,,,0.00,569,WeatherCatV1.20B653,2013-06-18 15:15:00,
2013-06-18 09:20:00,61.8,39.7,30.27,NNW,338,1.0,6.0,44,0.00,,,0.00,569,WeatherCatV1.20B653,2013-06-18 15:20:00,
2013-06-18 09:25:00,61.8,39.7,30.27,NNW,338,1.0,6.0,44,0.00,,,0.00,569,WeatherCatV1.20B653,2013-06-18 15:25:00,
2013-06-18 09:30:00,63.5,41.2,30.27,SE,135,1.0,6.0,44,0.00,,,0.00,614,WeatherCatV1.20B653,2013-06-18 15:30:00,
2013-06-18 09:35:00,63.5,41.2,30.27,SE,135,1.0,6.0,44,0.00,,,0.00,614,WeatherCatV1.20B653,2013-06-18 15:35:00,
2013-06-18 09:40:00,65.6,39.3,30.26,East,90,2.0,7.0,38,0.00,,,0.00,659,WeatherCatV1.20B653,2013-06-18 15:40:00,
2013-06-18 09:45:00,65.6,39.3,30.26,East,90,2.0,7.0,38,0.00,,,0.00,659,WeatherCatV1.20B653,2013-06-18 15:45:00,
2013-06-18 09:50:00,65.6,39.3,30.26,East,90,2.0,7.0,38,0.00,,,0.00,659,WeatherCatV1.20B653,2013-06-18 15:50:00,
2013-06-18 09:55:00,67.1,39.2,30.26,ESE,112,4.0,13.0,36,0.00,,,0.00,706,WeatherCatV1.20B653,2013-06-18 15:55:00,
2013-06-18 10:00:00,67.1,39.2,30.26,ESE,112,4.0,13.0,36,0.00,,,0.00,706,WeatherCatV1.20B653,2013-06-18 16:00:00,
2013-06-18 10:05:00,67.1,39.2,30.26,ESE,112,4.0,13.0,36,0.00,,,0.00,706,WeatherCatV1.20B653,2013-06-18 16:05:00,
2013-06-18 10:10:00,66.9,39.1,30.25,ESE,112,9.0,19.0,36,0.00,,,0.00,756,WeatherCatV1.20B653,2013-06-18 16:10:00,
2013-06-18 10:15:00,66.9,39.1,30.25,ESE,112,9.0,19.0,36,0.00,,,0.00,756,WeatherCatV1.20B653,2013-06-18 16:15:00,
2013-06-18 10:20:00,66.9,39.1,30.25,ESE,112,9.0,19.0,36,0.00,,,0.00,756,WeatherCatV1.20B653,2013-06-18 16:20:00,
2013-06-18 10:25:00,66.9,37.6,30.25,ESE,112,8.0,17.0,34,0.00,,,0.00,659,WeatherCatV1.20B653,2013-06-18 16:25:00,
2013-06-18 10:30:00,66.9,37.6,30.25,ESE,112,8.0,17.0,34,0.00,,,0.00,659,WeatherCatV1.20B653,2013-06-18 16:30:00,
2013-06-18 10:35:00,66.9,37.6,30.25,ESE,112,8.0,17.0,34,0.00,,,0.00,659,WeatherCatV1.20B653,2013-06-18 16:35:00,
2013-06-18 10:40:00,66.0,38.3,30.25,SSE,158,11.0,21.0,36,0.00,,,0.00,689,WeatherCatV1.20B653,2013-06-18 16:40:00,
2013-06-18 10:45:00,66.0,38.3,30.25,SSE,158,11.0,21.0,36,0.00,,,0.00,689,WeatherCatV1.20B653,2013-06-18 16:45:00,
2013-06-18 10:50:00,66.0,38.3,30.25,SSE,158,11.0,21.0,36,0.00,,,0.00,689,WeatherCatV1.20B653,2013-06-18 16:50:00,
2013-06-18 10:55:00,66.0,38.3,30.24,SE,135,12.0,24.0,36,0.00,,,0.00,747,WeatherCatV1.20B653,2013-06-18 16:55:00,
2013-06-18 11:00:00,66.0,38.3,30.24,SE,135,12.0,24.0,36,0.00,,,0.00,747,WeatherCatV1.20B653,2013-06-18 17:00:00,
2013-06-18 11:05:00,66.0,38.3,30.24,SE,135,12.0,24.0,36,0.00,,,0.00,747,WeatherCatV1.20B653,2013-06-18 17:05:00,
2013-06-18 11:10:00,68.9,37.8,30.24,SSE,158,10.0,24.0,32,0.00,,,0.00,1024,WeatherCatV1.20B653,2013-06-18 17:10:00,
2013-06-18 11:15:00,68.9,37.8,30.24,SSE,158,10.0,24.0,32,0.00,,,0.00,1024,WeatherCatV1.20B653,2013-06-18 17:15:00,
2013-06-18 11:20:00,68.9,37.8,30.24,SSE,158,10.0,24.0,32,0.00,,,0.00,1024,WeatherCatV1.20B653,2013-06-18 17:20:00,
2013-06-18 11:25:00,68.1,39.4,30.23,SSE,158,10.0,21.0,35,0.00,,,0.00,422,WeatherCatV1.20B653,2013-06-18 17:25:00,
2013-06-18 11:30:00,68.1,39.4,30.23,SSE,158,10.0,21.0,35,0.00,,,0.00,422,WeatherCatV1.20B653,2013-06-18 17:30:00,
2013-06-18 11:35:00,68.1,39.4,30.23,SSE,158,10.0,21.0,35,0.00,,,0.00,422,WeatherCatV1.20B653,2013-06-18 17:35:00,
2013-06-18 11:40:00,69.8,37.8,30.23,SSE,158,9.0,20.0,31,0.00,,,0.00,803,WeatherCatV1.20B653,2013-06-18 17:40:00,
2013-06-18 11:45:00,69.8,37.8,30.23,SSE,158,9.0,20.0,31,0.00,,,0.00,803,WeatherCatV1.20B653,2013-06-18 17:45:00,
2013-06-18 11:50:00,69.8,37.8,30.23,SSE,158,9.0,20.0,31,0.00,,,0.00,803,WeatherCatV1.20B653,2013-06-18 17:50:00,
2013-06-18 11:55:00,69.8,37.8,30.22,SE,135,7.0,18.0,31,0.00,,,0.00,610,WeatherCatV1.20B653,2013-06-18 17:55:00,
2013-06-18 12:00:00,69.8,37.8,30.22,SE,135,7.0,18.0,31,0.00,,,0.00,610,WeatherCatV1.20B653,2013-06-18 18:00:00,
2013-06-18 12:05:00,69.8,37.8,30.22,SE,135,7.0,18.0,31,0.00,,,0.00,610,WeatherCatV1.20B653,2013-06-18 18:05:00,
2013-06-18 12:10:00,72.3,37.4,30.22,SE,135,9.0,18.0,28,0.00,,,0.00,1161,WeatherCatV1.20B653,2013-06-18 18:10:00,
2013-06-18 12:15:00,72.3,37.4,30.22,SE,135,9.0,18.0,28,0.00,,,0.00,1161,WeatherCatV1.20B653,2013-06-18 18:15:00,
2013-06-18 12:20:00,72.3,37.4,30.22,SE,135,9.0,18.0,28,0.00,,,0.00,1161,WeatherCatV1.20B653,2013-06-18 18:20:00,
2013-06-18 12:25:00,72.0,37.1,30.21,SSE,158,10.0,21.0,28,0.00,,,0.00,1098,WeatherCatV1.20B653,2013-06-18 18:25:00,
2013-06-18 12:30:00,72.0,37.1,30.21,SSE,158,10.0,21.0,28,0.00,,,0.00,1098,WeatherCatV1.20B653,2013-06-18 18:30:00,
2013-06-18 12:35:00,72.0,37.1,30.21,SSE,158,10.0,21.0,28,0.00,,,0.00,1098,WeatherCatV1.20B653,2013-06-18 18:35:00,
2013-06-18 12:40:00,72.7,36.8,30.20,South,180,11.0,21.0,27,0.00,,,0.00,1078,WeatherCatV1.20B653,2013-06-18 18:40:00,
2013-06-18 12:45:00,72.7,36.8,30.20,South,180,11.0,21.0,27,0.00,,,0.00,1078,WeatherCatV1.20B653,2013-06-18 18:45:00,
2013-06-18 12:50:00,72.7,36.8,30.20,South,180,11.0,21.0,27,0.00,,,0.00,1078,WeatherCatV1.20B653,2013-06-18 18:50:00,
2013-06-18 12:55:00,71.5,36.7,30.20,South,180,12.0,24.0,28,0.00,,,0.00,1004,WeatherCatV1.20B653,2013-06-18 18:55:00,
2013-06-18 13:00:00,71.5,36.7,30.20,South,180,12.0,24.0,28,0.00,,,0.00,1004,WeatherCatV1.20B653,2013-06-18 19:00:00,
2013-06-18 13:05:00,71.5,36.7,30.20,South,180,12.0,24.0,28,0.00,,,0.00,1004,WeatherCatV1.20B653,2013-06-18 19:05:00,
2013-06-18 13:10:00,70.8,37.8,30.20,SSE,158,13.0,29.0,30,0.00,,,0.00,1065,WeatherCatV1.20B653,2013-06-18 19:10:00,
2013-06-18 13:15:00,70.8,37.8,30.20,SSE,158,13.0,29.0,30,0.00,,,0.00,1065,WeatherCatV1.20B653,2013-06-18 19:15:00,
2013-06-18 13:20:00,70.8,37.8,30.20,SSE,158,13.0,29.0,30,0.00,,,0.00,1065,WeatherCatV1.20B653,2013-06-18 19:20:00,
2013-06-18 13:25:00,70.6,37.7,30.19,SE,135,12.0,28.0,30,0.00,,,0.00,920,WeatherCatV1.20B653,2013-06-18 19:25:00,
2013-06-18 13:30:00,70.6,37.7,30.19,SE,135,12.0,28.0,30,0.00,,,0.00,920,WeatherCatV1.20B653,2013-06-18 19:30:00,
2013-06-18 13:35:00,70.6,37.7,30.19,SE,135,12.0,28.0,30,0.00,,,0.00,920,WeatherCatV1.20B653,2013-06-18 19:35:00,
2013-06-18 13:40:00,72.3,29.0,30.19,SSE,158,15.0,29.0,20,0.00,,,0.00,1192,WeatherCatV1.20B653,2013-06-18 19:40:00,
2013-06-18 13:45:00,72.3,29.0,30.19,SSE,158,15.0,29.0,20,0.00,,,0.00,1192,WeatherCatV1.20B653,2013-06-18 19:45:00,
2013-06-18 13:50:00,72.3,29.0,30.19,SSE,158,15.0,29.0,20,0.00,,,0.00,1192,WeatherCatV1.20B653,2013-06-18 19:50:00,
2013-06-18 13:55:00,70.4,26.2,30.19,SSW,202,15.0,29.0,19,0.00,,,0.00,523,WeatherCatV1.20B653,2013-06-18 19:55:00,
2013-06-18 14:00:00,70.4,26.2,30.19,SSW,202,15.0,29.0,19,0.00,,,0.00,523,WeatherCatV1.20B653,2013-06-18 20:00:00,
2013-06-18 14:05:00,70.4,26.2,30.19,SSW,202,15.0,29.0,19,0.00,,,0.00,523,WeatherCatV1.20B653,2013-06-18 20:05:00,
2013-06-18 14:10:00,72.8,29.4,30.18,SSW,202,11.0,25.0,20,0.00,,,0.00,861,WeatherCatV1.20B653,2013-06-18 20:10:00,
2013-06-18 14:15:00,72.8,29.4,30.18,SSW,202,11.0,25.0,20,0.00,,,0.00,861,WeatherCatV1.20B653,2013-06-18 20:15:00,
2013-06-18 14:20:00,72.8,29.4,30.18,SSW,202,11.0,25.0,20,0.00,,,0.00,861,WeatherCatV1.20B653,2013-06-18 20:20:00,
2013-06-18 14:25:00,74.0,32.7,30.17,SSW,202,10.0,24.0,22,0.00,,,0.00,1037,WeatherCatV1.20B653,2013-06-18 20:25:00,
2013-06-18 14:30:00,74.0,32.7,30.17,SSW,202,10.0,24.0,22,0.00,,,0.00,1037,WeatherCatV1.20B653,2013-06-18 20:30:00,
2013-06-18 14:35:00,74.0,32.7,30.17,SSW,202,10.0,24.0,22,0.00,,,0.00,1037,WeatherCatV1.20B653,2013-06-18 20:35:00,
2013-06-18 14:40:00,75.6,29.1,30.17,SSW,202,13.0,27.0,18,0.00,,,0.00,980,WeatherCatV1.20B653,2013-06-18 20:40:00,
2013-06-18 14:45:00,75.6,29.1,30.17,SSW,202,13.0,27.0,18,0.00,,,0.00,980,WeatherCatV1.20B653,2013-06-18 20:45:00,
2013-06-18 14:50:00,75.6,29.1,30.17,SSW,202,13.0,27.0,18,0.00,,,0.00,980,WeatherCatV1.20B653,2013-06-18 20:50:00,
2013-06-18 14:55:00,74.6,28.3,30.16,SSE,158,12.0,28.0,18,0.00,,,0.00,942,WeatherCatV1.20B653,2013-06-18 20:55:00,
2013-06-18 15:00:00,74.6,28.3,30.16,SSE,158,12.0,28.0,18,0.00,,,0.00,942,WeatherCatV1.20B653,2013-06-18 21:00:00,
2013-06-18 15:05:00,74.6,28.3,30.16,SSE,158,12.0,28.0,18,0.00,,,0.00,942,WeatherCatV1.20B653,2013-06-18 21:05:00,
2013-06-18 15:10:00,75.3,30.2,30.16,SSE,158,11.0,28.0,19,0.00,,,0.00,917,WeatherCatV1.20B653,2013-06-18 21:10:00,
2013-06-18 15:15:00,75.3,30.2,30.16,SSE,158,11.0,28.0,19,0.00,,,0.00,917,WeatherCatV1.20B653,2013-06-18 21:15:00,
2013-06-18 15:20:00,75.3,30.2,30.16,SSE,158,11.0,28.0,19,0.00,,,0.00,917,WeatherCatV1.20B653,2013-06-18 21:20:00,
2013-06-18 15:25:00,77.6,30.7,30.15,SW,225,7.0,18.0,18,0.00,,,0.00,932,WeatherCatV1.20B653,2013-06-18 21:25:00,
2013-06-18 15:30:00,77.6,30.7,30.15,SW,225,7.0,18.0,18,0.00,,,0.00,932,WeatherCatV1.20B653,2013-06-18 21:30:00,
2013-06-18 15:35:00,77.6,30.7,30.15,SW,225,7.0,18.0,18,0.00,,,0.00,932,WeatherCatV1.20B653,2013-06-18 21:35:00,
2013-06-18 15:40:00,76.1,30.8,30.16,SSE,158,11.0,21.0,19,0.00,,,0.00,926,WeatherCatV1.20B653,2013-06-18 21:40:00,
2013-06-18 15:45:00,76.1,30.8,30.16,SSE,158,11.0,21.0,19,0.00,,,0.00,926,WeatherCatV1.20B653,2013-06-18 21:45:00,
2013-06-18 15:50:00,76.1,30.8,30.16,SSE,158,11.0,21.0,19,0.00,,,0.00,926,WeatherCatV1.20B653,2013-06-18 21:50:00,
2013-06-18 15:55:00,73.5,28.7,30.16,SSW,202,9.0,20.0,19,0.00,,,0.00,235,WeatherCatV1.20B653,2013-06-18 21:55:00,
2013-06-18 16:00:00,73.5,28.7,30.16,SSW,202,9.0,20.0,19,0.00,,,0.00,235,WeatherCatV1.20B653,2013-06-18 22:00:00,
2013-06-18 16:05:00,73.5,28.7,30.16,SSW,202,9.0,20.0,19,0.00,,,0.00,235,WeatherCatV1.20B653,2013-06-18 22:05:00,
2013-06-18 16:10:00,73.7,28.9,30.15,SW,225,8.0,25.0,19,0.00,,,0.00,748,WeatherCatV1.20B653,2013-06-18 22:10:00,
2013-06-18 16:15:00,73.7,28.9,30.15,SW,225,8.0,25.0,19,0.00,,,0.00,748,WeatherCatV1.20B653,2013-06-18 22:15:00,
2013-06-18 16:20:00,73.7,28.9,30.15,SW,225,8.0,25.0,19,0.00,,,0.00,748,WeatherCatV1.20B653,2013-06-18 22:20:00,
2013-06-18 16:25:00,73.5,27.4,30.14,SSE,158,13.0,33.0,18,0.00,,,0.00,786,WeatherCatV1.20B653,2013-06-18 22:25:00,
2013-06-18 16:30:00,73.5,27.4,30.14,SSE,158,13.0,33.0,18,0.00,,,0.00,786,WeatherCatV1.20B653,2013-06-18 22:30:00,
2013-06-18 16:35:00,73.5,27.4,30.14,SSE,158,13.0,33.0,18,0.00,,,0.00,786,WeatherCatV1.20B653,2013-06-18 22:35:00,
2013-06-18 16:40:00,74.6,28.3,30.14,SSW,202,11.0,22.0,18,0.00,,,0.00,767,WeatherCatV1.20B653,2013-06-18 22:40:00,
2013-06-18 16:45:00,74.6,28.3,30.14,SSW,202,11.0,22.0,18,0.00,,,0.00,767,WeatherCatV1.20B653,2013-06-18 22:45:00,
2013-06-18 16:50:00,74.6,28.3,30.14,SSW,202,11.0,22.0,18,0.00,,,0.00,767,WeatherCatV1.20B653,2013-06-18 22:50:00,
2013-06-18 16:55:00,74.0,27.8,30.14,SSW,202,12.0,22.0,18,0.00,,,0.00,709,WeatherCatV1.20B653,2013-06-18 22:55:00,
2013-06-18 17:00:00,74.0,27.8,30.14,SSW,202,12.0,22.0,18,0.00,,,0.00,709,WeatherCatV1.20B653,2013-06-18 23:00:00,
2013-06-18 17:05:00,74.0,27.8,30.14,SSW,202,12.0,22.0,18,0.00,,,0.00,709,WeatherCatV1.20B653,2013-06-18 23:05:00,
2013-06-18 17:10:00,74.0,27.8,30.14,SSW,202,12.0,22.0,18,0.00,,,0.00,709,WeatherCatV1.20B653,2013-06-18 23:10:00,
2013-06-18 17:15:00,75.8,27.9,30.13,SSW,202,8.0,19.0,17,0.00,,,0.00,777,WeatherCatV1.20B653,2013-06-18 23:15:00,
2013-06-18 17:20:00,75.8,27.9,30.13,SSW,202,8.0,19.0,17,0.00,,,0.00,777,WeatherCatV1.20B653,2013-06-18 23:20:00,
2013-06-18 17:25:00,75.8,27.9,30.13,SSW,202,8.0,19.0,17,0.00,,,0.00,777,WeatherCatV1.20B653,2013-06-18 23:25:00,
2013-06-18 17:30:00,74.6,28.3,30.12,WSW,248,9.0,24.0,18,0.00,,,0.00,650,WeatherCatV1.20B653,2013-06-18 23:30:00,
2013-06-18 17:35:00,74.6,28.3,30.12,WSW,248,9.0,24.0,18,0.00,,,0.00,650,WeatherCatV1.20B653,2013-06-18 23:35:00,
2013-06-18 17:40:00,74.6,28.3,30.12,WSW,248,9.0,24.0,18,0.00,,,0.00,650,WeatherCatV1.20B653,2013-06-18 23:40:00,
2013-06-18 17:45:00,75.1,28.7,30.12,West,270,8.0,20.0,18,0.00,,,0.00,550,WeatherCatV1.20B653,2013-06-18 23:45:00,
2013-06-18 17:50:00,75.1,28.7,30.12,West,270,8.0,20.0,18,0.00,,,0.00,550,WeatherCatV1.20B653,2013-06-18 23:50:00,
2013-06-18 17:55:00,74.9,28.5,30.11,WSW,248,5.0,12.0,18,0.00,,,0.00,414,WeatherCatV1.20B653,2013-06-18 23:55:00,
2013-06-18 18:00:00,74.9,28.5,30.11,WSW,248,5.0,12.0,18,0.00,,,0.00,414,WeatherCatV1.20B653,2013-06-19 00:00:00,
2013-06-18 18:05:00,74.9,28.5,30.11,WSW,248,5.0,12.0,18,0.00,,,0.00,414,WeatherCatV1.20B653,2013-06-19 00:05:00,
2013-06-18 18:10:00,72.8,28.1,30.11,NW,315,4.0,11.0,19,0.00,,,0.00,165,WeatherCatV1.20B653,2013-06-19 00:10:00,
2013-06-18 18:15:00,72.8,28.1,30.11,NW,315,4.0,11.0,19,0.00,,,0.00,165,WeatherCatV1.20B653,2013-06-19 00:15:00,
2013-06-18 18:20:00,72.8,28.1,30.11,NW,315,4.0,11.0,19,0.00,,,0.00,165,WeatherCatV1.20B653,2013-06-19 00:20:00,
2013-06-18 18:25:00,73.3,28.5,30.11,NW,315,2.0,8.0,19,0.00,,,0.00,223,WeatherCatV1.20B653,2013-06-19 00:25:00,
2013-06-18 18:30:00,73.3,28.5,30.11,NW,315,2.0,8.0,19,0.00,,,0.00,223,WeatherCatV1.20B653,2013-06-19 00:30:00,
2013-06-18 18:35:00,73.3,28.5,30.11,NW,315,2.0,8.0,19,0.00,,,0.00,223,WeatherCatV1.20B653,2013-06-19 00:35:00,
2013-06-18 18:40:00,73.7,27.5,30.11,SW,225,3.0,12.0,18,0.00,,,0.00,261,WeatherCatV1.20B653,2013-06-19 00:40:00,
2013-06-18 18:45:00,73.7,27.5,30.11,SW,225,3.0,12.0,18,0.00,,,0.00,261,WeatherCatV1.20B653,2013-06-19 00:45:00,
2013-06-18 18:50:00,73.7,27.5,30.11,SW,225,3.0,12.0,18,0.00,,,0.00,261,WeatherCatV1.20B653,2013-06-19 00:50:00,
2013-06-18 18:55:00,72.3,27.7,30.11,SW,225,3.0,8.0,19,0.00,,,0.00,97,WeatherCatV1.20B653,2013-06-19 00:55:00,
2013-06-18 19:00:00,72.3,27.7,30.11,SW,225,3.0,8.0,19,0.00,,,0.00,97,WeatherCatV1.20B653,2013-06-19 01:00:00,
2013-06-18 19:05:00,72.3,27.7,30.11,SW,225,3.0,8.0,19,0.00,,,0.00,97,WeatherCatV1.20B653,2013-06-19 01:05:00,
2013-06-18 19:10:00,70.6,27.6,30.11,SSW,202,4.0,10.0,20,0.00,,,0.00,70,WeatherCatV1.20B653,2013-06-19 01:10:00,
2013-06-18 19:15:00,70.6,27.6,30.11,SSW,202,4.0,10.0,20,0.00,,,0.00,70,WeatherCatV1.20B653,2013-06-19 01:15:00,
2013-06-18 19:20:00,70.6,27.6,30.11,SSW,202,4.0,10.0,20,0.00,,,0.00,70,WeatherCatV1.20B653,2013-06-19 01:20:00,
2013-06-18 19:25:00,69.8,28.1,30.11,West,270,0.0,0.0,21,0.00,,,0.00,33,WeatherCatV1.20B653,2013-06-19 01:25:00,
2013-06-18 19:36:00,69.4,27.8,30.12,West,270,0.0,1.0,21,0.00,,,0.00,35,WeatherCatV1.20B653,2013-06-19 01:36:00,
2013-06-18 19:41:00,68.8,28.4,30.12,West,271,0.0,0.0,22,0.00,,,0.00,40,WeatherCatV1.20B653,2013-06-19 01:41:00,
2013-06-18 19:46:00,68.6,28.2,30.12,West,270,0.0,0.0,22,0.00,,,0.00,39,WeatherCatV1.20B653,2013-06-19 01:46:00,
2013-06-18 19:51:00,68.3,29.1,30.12,West,270,0.0,0.0,23,0.00,,,0.00,37,WeatherCatV1.20B653,2013-06-19 01:51:00,
2013-06-18 19:56:00,67.8,28.6,30.12,West,271,0.0,0.0,23,0.00,,,0.00,39,WeatherCatV1.20B653,2013-06-19 01:56:00,
2013-06-18 20:01:00,67.4,30.4,30.12,West,271,0.0,0.0,25,0.00,,,0.00,37,WeatherCatV1.20B653,2013-06-19 02:01:00,
2013-06-18 20:06:00,66.9,29.9,30.12,West,271,0.0,0.0,25,0.00,,,0.00,46,WeatherCatV1.20B653,2013-06-19 02:06:00,
2013-06-18 20:11:00,66.4,30.5,30.12,West,270,4.0,5.0,26,0.00,,,0.00,35,WeatherCatV1.20B653,2013-06-19 02:11:00,
2013-06-18 20:16:00,66.0,31.1,30.12,West,270,5.0,7.0,27,0.00,,,0.00,30,WeatherCatV1.20B653,2013-06-19 02:16:00,
2013-06-18 20:21:00,65.5,29.7,30.12,West,270,0.0,0.0,26,0.00,,,0.00,19,WeatherCatV1.20B653,2013-06-19 02:21:00,
2013-06-18 20:26:00,65.3,29.5,30.12,West,270,0.0,0.0,26,0.00,,,0.00,9,WeatherCatV1.20B653,2013-06-19 02:26:00,
2013-06-18 20:31:00,65.0,30.2,30.12,West,270,0.0,0.0,27,0.00,,,0.00,5,WeatherCatV1.20B653,2013-06-19 02:31:00,
2013-06-18 20:36:00,64.5,29.8,30.12,West,270,0.0,0.0,27,0.00,,,0.00,0,WeatherCatV1.20B653,2013-06-19 02:36:00,
2013-06-18 20:41:00,64.0,29.4,30.12,West,270,0.0,0.0,27,0.00,,,0.00,0,WeatherCatV1.20B653,2013-06-19 02:41:00,
2013-06-18 20:46:00,63.4,29.7,30.13,West,270,0.0,0.0,28,0.00,,,0.00,0,WeatherCatV1.20B653,2013-06-19 02:46:00,
2013-06-18 20:51:00,62.7,30.0,30.13,West,270,0.0,2.0,29,0.00,,,0.00,0,WeatherCatV1.20B653,2013-06-19 02:51:00,
2013-06-18 20:56:00,62.3,28.8,30.13,West,270,0.0,0.0,28,0.00,,,0.00,0,WeatherCatV1.20B653,2013-06-19 02:56:00,
2013-06-18 21:01:00,61.8,29.2,30.12,West,270,0.0,0.0,29,0.00,,,0.00,0,WeatherCatV1.20B653,2013-06-19 03:01:00,
2013-06-18 21:06:00,61.2,29.5,30.12,West,270,0.0,0.0,30,0.00,,,0.00,0,WeatherCatV1.20B653,2013-06-19 03:06:00,
2013-06-18 21:11:00,60.7,29.9,30.12,West,271,3.0,6.0,31,0.00,,,0.00,0,WeatherCatV1.20B653,2013-06-19 03:11:00,
2013-06-18 21:16:00,60.5,30.5,30.13,West,280,9.0,10.0,32,0.00,,,0.00,0,WeatherCatV1.20B653,2013-06-19 03:16:00,
2013-06-18 21:21:00,60.9,30.1,30.13,WNW,284,5.0,11.0,31,0.00,,,0.00,0,WeatherCatV1.20B653,2013-06-19 03:21:00,
2013-06-18 21:26:00,60.9,30.8,30.13,WNW,291,4.0,7.0,32,0.00,,,0.00,0,WeatherCatV1.20B653,2013-06-19 03:26:00,
2013-06-18 21:31:00,60.9,30.1,30.13,WNW,292,3.0,6.0,31,0.00,,,0.00,0,WeatherCatV1.20B653,2013-06-19 03:31:00,
2013-06-18 21:36:00,60.2,29.5,30.13,WNW,291,1.0,3.0,31,0.00,,,0.00,0,WeatherCatV1.20B653,2013-06-19 03:36:00,
2013-06-18 21:41:00,59.8,29.1,30.13,West,260,9.0,11.0,31,0.00,,,0.00,0,WeatherCatV1.20B653,2013-06-19 03:41:00,
2013-06-18 21:46:00,59.6,29.7,30.14,WNW,288,8.0,11.0,32,0.00,,,0.00,0,WeatherCatV1.20B653,2013-06-19 03:46:00,
2013-06-18 21:51:00,59.6,28.9,30.14,WNW,284,2.0,10.0,31,0.00,,,0.00,0,WeatherCatV1.20B653,2013-06-19 03:51:00,
2013-06-18 21:56:00,59.5,28.9,30.14,NW,315,5.0,8.0,31,0.00,,,0.00,0,WeatherCatV1.20B653,2013-06-19 03:56:00,
2013-06-18 22:01:00,59.3,29.5,30.14,WNW,285,12.0,13.0,32,0.00,,,0.00,0,WeatherCatV1.20B653,2013-06-19 04:01:00,
2013-06-18 22:05:00,59.3,29.4,30.14,WNW,288,5.0,14.0,32,0.00,,,0.00,0,WeatherCatV1.20B653,2013-06-19 04:05:00,
2013-06-18 22:06:00,59.0,29.9,30.14,WNW,289,4.0,13.0,33,0.00,,,0.00,0,WeatherCatV1.20B653,2013-06-19 04:06:00,
2013-06-18 22:10:00,59.2,30.1,30.14,WNW,283,7.0,13.0,33,0.00,,,0.00,0,WeatherCatV1.20B653,2013-06-19 04:10:00,
2013-06-18 22:15:00,59.2,30.1,30.14,WNW,283,7.0,13.0,33,0.00,,,0.00,0,WeatherCatV1.20B653,2013-06-19 04:15:00,
2013-06-18 22:20:00,58.6,28.8,30.15,WNW,292,5.0,13.0,32,0.00,,,0.00,0,WeatherCatV1.20B653,2013-06-19 04:20:00,
2013-06-18 22:25:00,58.6,28.8,30.15,WNW,292,5.0,13.0,32,0.00,,,0.00,0,WeatherCatV1.20B653,2013-06-19 04:25:00,
2013-06-18 22:30:00,58.6,28.8,30.15,WNW,292,5.0,13.0,32,0.00,,,0.00,0,WeatherCatV1.20B653,2013-06-19 04:30:00,
2013-06-18 22:35:00,56.5,29.9,30.15,WNW,292,4.0,13.0,36,0.00,,,0.00,0,WeatherCatV1.20B653,2013-06-19 04:35:00,
2013-06-18 22:40:00,56.5,29.9,30.15,WNW,292,4.0,13.0,36,0.00,,,0.00,0,WeatherCatV1.20B653,2013-06-19 04:40:00,
2013-06-18 22:45:00,56.5,29.9,30.15,WNW,292,4.0,13.0,36,0.00,,,0.00,0,WeatherCatV1.20B653,2013-06-19 04:45:00,
2013-06-18 22:50:00,56.7,28.6,30.15,WNW,292,5.0,14.0,34,0.00,,,0.00,0,WeatherCatV1.20B653,2013-06-19 04:50:00,
2013-06-18 22:55:00,56.7,28.6,30.15,WNW,292,5.0,14.0,34,0.00,,,0.00,0,WeatherCatV1.20B653,2013-06-19 04:55:00,
2013-06-18 23:00:00,56.7,28.6,30.15,WNW,292,5.0,14.0,34,0.00,,,0.00,0,WeatherCatV1.20B653,2013-06-19 05:00:00,
2013-06-18 23:05:00,54.4,28.7,30.16,WNW,292,2.0,5.0,37,0.00,,,0.00,0,WeatherCatV1.20B653,2013-06-19 05:05:00,
2013-06-18 23:10:00,54.4,28.7,30.16,WNW,292,2.0,5.0,37,0.00,,,0.00,0,WeatherCatV1.20B653,2013-06-19 05:10:00,
2013-06-18 23:15:00,54.4,28.7,30.16,WNW,292,2.0,5.0,37,0.00,,,0.00,0,WeatherCatV1.20B653,2013-06-19 05:15:00,
2013-06-18 23:20:00,53.1,28.2,30.16,WNW,292,0.0,3.0,38,0.00,,,0.00,0,WeatherCatV1.20B653,2013-06-19 05:20:00,
2013-06-18 23:25:00,53.1,28.2,30.16,WNW,292,0.0,3.0,38,0.00,,,0.00,0,WeatherCatV1.20B653,2013-06-19 05:25:00,
2013-06-18 23:30:00,53.1,28.2,30.16,WNW,292,0.0,3.0,38,0.00,,,0.00,0,WeatherCatV1.20B653,2013-06-19 05:30:00,
2013-06-18 23:35:00,54.1,29.1,30.16,West,270,3.0,14.0,38,0.00,,,0.00,0,WeatherCatV1.20B653,2013-06-19 05:35:00,
2013-06-18 23:40:00,54.1,29.1,30.16,West,270,3.0,14.0,38,0.00,,,0.00,0,WeatherCatV1.20B653,2013-06-19 05:40:00,
2013-06-18 23:45:00,54.1,29.1,30.16,West,270,3.0,14.0,38,0.00,,,0.00,0,WeatherCatV1.20B653,2013-06-19 05:45:00,
2013-06-18 23:50:00,55.6,28.4,30.16,WNW,292,8.0,16.0,35,0.00,,,0.00,0,WeatherCatV1.20B653,2013-06-19 05:50:00,
2013-06-18 23:55:00,55.6,28.4,30.16,WNW,292,8.0,16.0,35,0.00,,,0.00,0,WeatherCatV1.20B653,2013-06-19 05:55:00,